133  
NZUS93 KARX 210510  
HRRWXR  
 
CURRENT HOURLY OBSERVATIONS ACROSS  
MUCH OF THE UPPER MISSISSIPPI VALLEY  
NATIONAL WEATHER SERVICE LA CROSSE WI  
1200 AM CDT THU SEP 21 2017  
 
   
..SOUTHEAST MINNESOTA
 
 
 
CITY SKY/WX TMP DP RH WIND PRES REMARKS  
ROCHESTER CLEAR 58 53 84 NE3 29.99R  
ROCHESTER/MAYO FAIR 60 56 85 CALM 29.99R  
WINONA CLEAR 55 55 100 NW6 29.95F  
AUSTIN CLEAR 54 52 94 CALM 29.97R  
ALBERT LEA CLEAR 55 55 100 CALM 29.97R  
DODGE CENTER CLEAR 52 50 93 CALM 29.98S  
PRESTON CLEAR 58 53 83 N6 29.98S  
OWATONNA CLEAR 52 52 100 CALM 29.98R  
FARIBAULT CLEAR 50 48 93 CALM 29.99R  

 
   
..ELSEWHERE IN MINNESOTA
 
 
 
CITY SKY/WX TMP DP RH WIND PRES REMARKS  
MINNEAPOLIS CLEAR 62 52 69 CALM 29.97R  
INTNL FALLS CLEAR 45 41 86 CALM 29.91R  
DULUTH CLEAR 45 44 97 CALM 29.96R  
RED WING CLEAR 54 52 94 N3 29.97R  
REDWOOD FALLS CLEAR 53 49 86 E6 29.94R  
MANKATO CLEAR 60 51 72 E7 29.97R  
WORTHINGTON CLEAR 52 47 83 NE5 29.96R  
FAIRMONT CLEAR 52 49 89 E3 29.97R  

 
   
..SOUTHWEST WISCONSIN
 
 
 
CITY SKY/WX TMP DP RH WIND PRES REMARKS  
LA CROSSE NOT AVBL  
PRAIRIE DU CHI CLOUDY 69 67 91 CALM 29.92S  
BOSCOBEL MOCLDY 72 70 93 CALM 29.92R  
LONE ROCK CLOUDY 73 71 93 CALM 29.91F  
PLATTEVILLE CLOUDY 72 71 97 CALM 29.95R  
FORT MC COY FOG 58 58 100 NW3 29.94S VSB 1/4  
CAMP DOUGLAS PTCLDY 64 64 100 CALM 29.94R FOG  
MAUSTON-NEW LI MOCLDY 66 66 99 CALM 29.93S FOG  
VIROQUA FAIR 64 64 100 CALM 29.95R  
WIS DELLS CLOUDY 69 67 94 CALM 29.93S FOG  

 
   
..ELSEWHERE IN WISCONSIN
 
 
 
CITY SKY/WX TMP DP RH WIND PRES REMARKS  
MILWAUKEE CLOUDY 74 66 76 NE15G24 29.95R  
MADISON CLOUDY 72 71 97 E3 29.92R  
GREEN BAY CLOUDY 69 68 96 CALM 29.92R  
EAU CLAIRE CLEAR 55 54 96 CALM 29.97R  
BLACK RVR FLS FAIR 60 60 100 NW3 29.93R FOG  
MEDFORD FOG 54 53 98 NE6 29.97R VSB 1/4  
WAUSAU CLOUDY 63 63 100 CALM 29.93S FOG  
WIS RAPIDS FOG 64 64 100 CALM 29.94S VSB 1/4  
MARSHFIELD CLEAR 60 58 92 NW9 29.95R  
RICE LAKE CLEAR 50 49 98 CALM 30.00R FOG  

 
   
..NORTHEAST IOWA
 
 
 
CITY SKY/WX TMP DP RH WIND PRES REMARKS  
WATERLOO CLOUDY 66 62 87 N5 29.91S  
DUBUQUE CLOUDY 70 67 90 W9 29.92R  
DECORAH CLOUDY 63 61 94 CALM 29.93R  
MASON CITY CLEAR 54 51 90 N3 29.97R  
CHARLES CITY CLEAR 59 59 100 N6 29.95F  
OELWEIN CLEAR 66 64 94 NE7 29.93S  

 
   
..ELSEWHERE IN IOWA
 
 
 
CITY SKY/WX TMP DP RH WIND PRES REMARKS  
DES MOINES PTCLDY 72 59 63 NE7 29.89S  
IOWA CITY TSTM 75 72 90 S8 29.93R  
FORT DODGE CLEAR 57 53 86 CALM 29.95R  
MARSHALLTOWN MOCLDY 69 61 75 NE6 29.91S  
CEDAR RAPIDS CLOUDY 73 71 93 CALM 29.92R  

 
   
..NORTHERN ILLINOIS
 
 
 
CITY SKY/WX TMP DP RH WIND PRES REMARKS  
CHICAGO-OHARE CLOUDY 80 67 64 S9 29.92F  
CHICAGO-MIDWAY CLOUDY 80 68 66 S7 29.93S  
MOLINE TSTM 71 68 90 NW18G35 29.96R FOG  
ROCKFORD LGT RAIN 75 68 78 N9 29.94R  
PEORIA CLOUDY 77 70 79 S5 29.93R  

 
 
NOTE: "FAIR" INDICATES FEW OR NO CLOUDS BELOW 12,000 FEET WITH NO  
SIGNIFICANT WEATHER AND/OR OBSTRUCTIONS TO VISIBILITY. WIND  
SPEEDS ARE IN MILES-PER-HOUR.  
 
 
CLICK HERE TO GO TO PREVIOUS BULLETINS.

The Nexlab WI Page
The Nexlab IA Page
The Nexlab MN Page Main Text Page